ARIANE 44LP DEB, 33542

Orbit data source: Space-Track

ARIANE 44LP DEB, 33542 is space debris in HEO originally from a launch on Sun, 11 Dec 1988 UTC launched from the French Guiana (FRGUI). Debris objects in space refer to the collection of defunct objects orbiting the Earth. Examples of debris include non-operational satellites, rocket bodies, and fragments generated from explosions, collisions, or faulty payload assembly.

Loading next visibility...
Identifier
33542, 1988-109R
Orbit
HEO
Country
Flag of FRFR
Related business
Manufacturer
Unknown
Mission
Spacecraft
Bus & Motor
Unknown
Mass
Unknown
Launch date (UTC)
1988-12-11 (37 years ago)
Launch vehicle
Unknown
Launch site
French Guiana (FRGUI)
Object type
Payload
Rocket body
Debris
Shape & HBR
Unknown shape, 1.1 m
Radar Cross Section
Medium (>0.1 m² and <1 m²)

Expand to show TLE details & history
Last TLE update: 19 hours ago

TLE from 19 hours ago
0 ARIANE 44LP DEB
1 33542U 88109R   26125.28877919 -.00000183  00000-0 -41337-2 0  9994
2 33542   6.5782 222.3793 7122574  84.2365 230.9823  2.24359696170620
Epoch: 2026-05-05T06:55Z
TLE epoch observation values (Epoch: 2026-05-05T06:55:50.522Z)
Latitude
-6.54838°
Longitude
172.24282°
Altitude
33,387.494 km
Speed
1.969 km/s
True Right ascension
09h 17m 28s
True Declination
-6° 32' 29"
Sunlit
Object was in daylight at epoch
Visualization orbit readout
Latitude
Unknown
Longitude
Unknown
Altitude
Unknown
Speed
Unknown
Apparent Right ascension
Unknown
Apparent Declination
Unknown
Sunlit
N/A
Visualization observer readout
Local Sidereal Time
09:47:28
Azimuth
Unknown
Elevation
Unknown
Doppler factor
Unknown
Orbital elements
Apogee altitude
35,833.337 km
Perigee altitude
715.446 km
Semi-major axis
24,652.528 km
Eccentricity
0.71226
Inclination
6.5782°
RAAN
222.3793°
Arg. of periapsis
84.2365°
True anomaly
192.69206°
Mean anomaly
230.9823°
Eccentric anomaly
210.35751°
Mean motion
0.56073 °/min
Orbital period
642.02 mins
BSTAR
-0.0041337
Loading maneuver chart data...
Computing Atmospheric mass density...
Loading historical data...
Loading historical data...
Loading historical data...
Loading historical data...
Loading historical data...
Loading historical data...
Loading historical data...

Documentation

Showing up to 5 results
|